NOAA 16 DEB, 41069

Orbit data source: Space-Track

NOAA 16 DEB, 41069 is space debris in SSO originally from a launch on Thu, 21 Sep 2000 UTC launched from the Air Force Western Test Range (AFWTR). Debris objects in space refer to the collection of defunct objects orbiting the Earth. Examples of debris include non-operational satellites, rocket bodies, and fragments generated from explosions, collisions, or faulty payload assembly.

Loading next visibility...
Identifier
41069, 2000-055AC
Orbit
SSO
Country
Flag of USUS
Related business
Manufacturer
Unknown
Mission
Spacecraft
Bus & Motor
Unknown
Mass
Unknown
Launch date (UTC)
2000-09-21 (25 years ago)
Launch vehicle
Unknown
Launch site
Air Force Western Test Range (AFWTR)
Object type
Payload
Rocket body
Debris
Shape & HBR
Unknown shape, 0.1 m
Radar Cross Section
Small (<0.1 m²)

Expand to show TLE details & history
Last TLE update: 19 hours ago

TLE from 19 hours ago
0 NOAA 16 DEB
1 41069U 00055AC  25296.22921753  .00004498  00000-0  12912-2 0  9997
2 41069  98.5921  42.1886 0110712 168.7463 191.6241 14.41845127518467
Epoch: 2025-10-23T05:30Z
TLE epoch observation values (Epoch: 2025-10-23T05:30:04.394Z)
Latitude
0.00002°
Longitude
-72.22118°
Altitude
832.733 km
Speed
7.396 km/s
True Right ascension
02h 48m 45s
True Declination
0° 00' 00"
Sunlit
Object was in full shadow at epoch
Visualization orbit readout
Latitude
Unknown
Longitude
Unknown
Altitude
Unknown
Speed
Unknown
Apparent Right ascension
Unknown
Apparent Declination
Unknown
Sunlit
N/A
Visualization observer readout
Local Sidereal Time
19:59:57
Azimuth
Unknown
Elevation
Unknown
Doppler factor
Unknown
Orbital elements
Apogee altitude
828.444 km
Perigee altitude
670.62 km
Semi-major axis
7,127.669 km
Eccentricity
0.01107
Inclination
98.5921°
RAAN
42.1886°
Arg. of periapsis
168.7463°
True anomaly
191.3719°
Mean anomaly
191.6241°
Eccentric anomaly
191.49766°
Mean motion
3.6068 °/min
Orbital period
99.81 mins
BSTAR
0.0012912
Loading maneuver chart data...
Computing Atmospheric mass density...
Loading historical data...
Loading historical data...
Loading historical data...
Loading historical data...
Loading historical data...
Loading historical data...
Loading historical data...

Documentation

Showing up to 5 results
|